User: anonymous   Login
Location: Napier
(39.4830°S, 176.9170°E)
Time: 08:10:02
(UTC+13:00)
Language:

Cosmos 2360 Rocket - Orbit

View from above orbital plane
View from above orbital plane
View from above satellite
View from above satellite

Ground track
Ground track

The orbit data is extracted from the following two-line orbital elements,

1 25407U 98045B   19078.69889443 +.00000185 +00000-0 +11846-3 0  9997
2 25407 071.0104 135.3966 0009577 301.3843 058.6342 14.15783401066572
Epoch (UTC): 19 March 2019 16:46:24
Eccentricity: 0.0009577
inclination: 71.0104°
perigee height: 833 km
apogee height: 846 km
right ascension of ascending node: 135.3966°
argument of perigee: 301.3843°
revolutions per day: 14.15783401
mean anomaly at epoch: 58.6342°
orbit number at epoch: 6657

The dashed part of the orbit path shows where the satellite is in the earth's shadow,  

DLR